Location: Godiavel Galaoual
(15.2485°N, 12.6604°W)
Time: 01:51:20
(UTC+00:00)

Transit 4A - Pass Details

Date: 15 June 2021
Orbit: 872 x 972 km, 66.8° (Epoch: 29 July)

Event Time Altitude Azimuth Distance (km) Brightness Sun altitude
Rises 08:47:08 0° 153° (SSE) 3,612 11.1 32.2°
Reaches altitude 10° 08:53:01 10° 110° (ESE) 2,638 11.1 33.6°
Maximum altitude 08:53:26 10° 106° (ESE) 2,631 11.2 33.7°
Drops below altitude 10° 08:53:51 10° 102° (ESE) 2,633 11.3 33.8°
Sets 08:59:36 0° 59° (ENE) 3,543 11.9 35.1°
